Location: Drocourt
(49.0571°N, 1.7669°E)
Time: 14:24:48
(UTC+00:00)

SR - Pass Details

Date: 15 April 2024
Orbit: 579 x 859 km, 66.7° (Epoch: 28 May)

Event Time Altitude Azimuth Distance (km) Brightness Sun altitude
Rises 09:19:52 0° 327° (NNW) 3,092 ? 39.6°
Reaches altitude 10° 09:22:59 10° 345° (NNW) 2,113 ? 40.0°
Maximum altitude 09:26:16 18° 29° (NNE) 1,575 ? 40.5°
Drops below altitude 10° 09:29:24 10° 74° (ENE) 1,999 ? 40.9°
Sets 09:32:14 0° 94° (E) 2,861 ? 41.2°
